Powrót do katalogu

COSMOS 468

AktywnyMilitariaLEO
NORAD 5705·PAYLOAD·🇷🇺 Russia

Wystrzelony Dec 17, 1971 z Plesetsk Cosmodrome

Loading…

Następne Przeloty (najbliższe 24 godziny)

TLE

ŚwieżeSource: Space-Track

Epoka: Sep 13, 2026, 23:24 UTC

1 05705U 71114A   26256.97530408  .00000071  00000-0  33063-4 0  9995
2 05705  74.0159  78.3134 0014022 107.8941 252.3742 14.36757881863967

Śledź COSMOS 468 w czasie rzeczywistym z AllMySat

Download on the App Store